QTR31B LSGG-OTHH

Flight info

Callsign QTR31B
Flight time N/A
Altitude 39000
Route MEDAM1A/22 MEDAM DCT NITAM DCT MOGBO DCT LAGEN DCT EVULI DCT AMSOR DCT RUTOM DCT SALUN N705 MMA P751 DASUM Y234 FYM M872 WEJ L604 KFA M691 LADNA N318 HAYYA
Aircraft A359/H-SDE2E3GHIJ3J4J5LM1ORWXY/LB1D1

Departure

Time 2026-05-05 16:53
Airport Geneva International Airport (LSGG)

Arrival

Time N/A
Airport Hamad International Airport (OTHH)
Time Latitude Longitude Altitude Speed Heading
2026-05-05 16:26 46.23382 6.11038 1399 ft 0 kts 135°
2026-05-05 16:41 46.23387 6.11031 1409 ft 4 kts 135°
2026-05-05 16:41 46.23405 6.11005 1406 ft 4 kts 135°
2026-05-05 16:41 46.23422 6.10981 1409 ft 4 kts 120°
2026-05-05 16:42 46.23425 6.10950 1409 ft 4 kts 58°
2026-05-05 16:42 46.23408 6.10922 1409 ft 3 kts 45°
2026-05-05 16:42 46.23403 6.10914 1409 ft 0 kts 45°
2026-05-05 16:47 46.23414 6.10930 1409 ft 5 kts 46°
2026-05-05 16:47 46.23422 6.10942 1409 ft 0 kts 46°
2026-05-05 16:47 46.23423 6.10943 1409 ft 2 kts 46°
2026-05-05 16:47 46.23460 6.11000 1409 ft 10 kts 45°
2026-05-05 16:48 46.23516 6.11081 1408 ft 12 kts 45°
2026-05-05 16:48 46.23566 6.11148 1409 ft 9 kts 33°
2026-05-05 16:48 46.23621 6.11131 1408 ft 9 kts 320°
2026-05-05 16:48 46.23680 6.11080 1401 ft 12 kts 357°
2026-05-05 16:49 46.23763 6.11167 1382 ft 19 kts 44°
2026-05-05 16:49 46.23864 6.11313 1379 ft 22 kts 45°
2026-05-05 16:49 46.23964 6.11460 1377 ft 18 kts 46°
2026-05-05 16:49 46.24057 6.11596 1372 ft 21 kts 45°
2026-05-05 16:50 46.24159 6.11747 1368 ft 20 kts 45°
2026-05-05 16:50 46.24253 6.11885 1367 ft 18 kts 45°
2026-05-05 16:50 46.24346 6.12021 1368 ft 20 kts 45°
2026-05-05 16:50 46.24439 6.12158 1375 ft 19 kts 45°
2026-05-05 16:51 46.24534 6.12297 1375 ft 21 kts 45°
2026-05-05 16:51 46.24646 6.12462 1369 ft 26 kts 45°
2026-05-05 16:51 46.24740 6.12600 1366 ft 17 kts 45°
2026-05-05 16:51 46.24837 6.12683 1367 ft 14 kts 18°
2026-05-05 16:52 46.24930 6.12726 1372 ft 14 kts 17°
2026-05-05 16:52 46.25008 6.12715 1372 ft 6 kts 331°
2026-05-05 16:52 46.25016 6.12682 1376 ft 2 kts 259°
2026-05-05 16:52 46.25005 6.12662 1373 ft 4 kts 232°
2026-05-05 16:53 46.24948 6.12574 1373 ft 27 kts 226°
2026-05-05 16:53 46.24663 6.12155 1374 ft 99 kts 225°
2026-05-05 16:53 46.23994 6.11169 1383 ft 173 kts 226°
2026-05-05 16:53 46.23089 6.09851 2101 ft 187 kts 225°
2026-05-05 16:54 46.22175 6.08504 3232 ft 194 kts 226°
2026-05-05 16:54 46.21223 6.07104 4169 ft 196 kts 225°
2026-05-05 16:54 46.20220 6.05632 4585 ft 221 kts 225°
2026-05-05 16:54 46.19065 6.03945 5288 ft 247 kts 225°
2026-05-05 16:55 46.17858 6.02180 6456 ft 245 kts 224°
2026-05-05 16:55 46.16651 6.00416 7469 ft 250 kts 224°
2026-05-05 16:55 46.15393 5.98651 8508 ft 253 kts 219°
2026-05-05 16:55 46.13901 5.97278 9568 ft 258 kts 204°
2026-05-05 16:56 46.12134 5.96669 10379 ft 272 kts 185°
2026-05-05 16:56 46.10846 5.96851 10631 ft 292 kts 168°
2026-05-05 16:56 46.08992 5.98377 10985 ft 327 kts 140°
2026-05-05 16:56 46.07672 6.01219 11377 ft 359 kts 117°
2026-05-05 16:57 46.06720 6.04633 12064 ft 372 kts 115°
2026-05-05 16:57 46.05727 6.08040 12968 ft 378 kts 117°
2026-05-05 16:57 46.04527 6.11487 13895 ft 380 kts 126°
2026-05-05 16:57 46.02788 6.14315 14717 ft 377 kts 143°
2026-05-05 16:58 46.00714 6.16659 15536 ft 381 kts 147°
2026-05-05 16:58 45.98572 6.18927 16392 ft 384 kts 148°
2026-05-05 16:58 45.96402 6.21210 17248 ft 389 kts 148°
2026-05-05 16:58 45.94206 6.23523 18098 ft 394 kts 148°
2026-05-05 16:59 45.91983 6.25866 18859 ft 398 kts 148°
2026-05-05 16:59 45.89739 6.28227 19547 ft 403 kts 148°
2026-05-05 16:59 45.87466 6.30625 20229 ft 407 kts 147°
2026-05-05 16:59 45.85178 6.33059 20795 ft 413 kts 148°
2026-05-05 17:00 45.82888 6.35495 21431 ft 417 kts 148°
2026-05-05 17:00 45.80520 6.38013 22098 ft 420 kts 148°
2026-05-05 17:00 45.78164 6.40522 22705 ft 424 kts 148°
2026-05-05 17:00 45.75780 6.43055 23320 ft 428 kts 148°
2026-05-05 17:01 45.73376 6.45600 23814 ft 432 kts 148°
2026-05-05 17:01 45.70942 6.48175 24308 ft 436 kts 148°
2026-05-05 17:01 45.68487 6.50768 24739 ft 441 kts 148°
2026-05-05 17:01 45.66047 6.53342 25268 ft 442 kts 148°
2026-05-05 17:02 45.63564 6.55960 25748 ft 445 kts 149°
2026-05-05 17:02 45.61060 6.58596 26183 ft 448 kts 149°
2026-05-05 17:02 45.58544 6.61243 26652 ft 451 kts 149°
2026-05-05 17:02 45.56007 6.63908 27066 ft 455 kts 150°
2026-05-05 17:03 45.53450 6.66590 27527 ft 457 kts 151°
2026-05-05 17:03 45.50881 6.69281 28002 ft 460 kts 151°
2026-05-05 17:03 45.48294 6.71988 28445 ft 463 kts 151°
2026-05-05 17:03 45.45679 6.74719 28874 ft 466 kts 151°
2026-05-05 17:04 45.43050 6.77426 29100 ft 468 kts 152°
2026-05-05 17:04 45.40379 6.80102 29332 ft 470 kts 153°
2026-05-05 17:04 45.37687 6.82776 29866 ft 471 kts 153°
2026-05-05 17:04 45.35000 6.85450 30271 ft 472 kts 153°
2026-05-05 17:05 45.32305 6.88136 30543 ft 475 kts 153°
2026-05-05 17:05 45.29625 6.90810 30874 ft 478 kts 153°
2026-05-05 17:05 45.26917 6.93605 31160 ft 484 kts 150°
2026-05-05 17:05 45.24358 6.96766 31449 ft 491 kts 145°
2026-05-05 17:06 45.21875 7.00093 31949 ft 490 kts 144°
2026-05-05 17:06 45.19439 7.03466 32403 ft 490 kts 143°
2026-05-05 17:06 45.17010 7.06865 32869 ft 489 kts 143°
2026-05-05 17:06 45.14588 7.10250 33236 ft 489 kts 144°
2026-05-05 17:07 45.12173 7.13641 33587 ft 491 kts 142°
2026-05-05 17:07 45.09939 7.17337 33951 ft 497 kts 135°
2026-05-05 17:07 45.07865 7.21274 34236 ft 499 kts 134°
2026-05-05 17:07 45.05841 7.25266 34512 ft 500 kts 133°
2026-05-05 17:08 45.03835 7.29300 34720 ft 501 kts 133°
2026-05-05 17:08 45.01842 7.33340 34971 ft 501 kts 132°
2026-05-05 17:08 44.99854 7.37371 35321 ft 498 kts 132°
2026-05-05 17:08 44.97874 7.41375 35635 ft 497 kts 132°
2026-05-05 17:09 44.95867 7.45341 35889 ft 495 kts 133°
2026-05-05 17:09 44.93840 7.49195 36101 ft 495 kts 134°
2026-05-05 17:09 44.91762 7.53069 36261 ft 496 kts 134°
2026-05-05 17:09 44.89674 7.56940 36489 ft 495 kts 134°
2026-05-05 17:10 44.87590 7.60808 36742 ft 495 kts 133°
2026-05-05 17:10 44.85511 7.64680 36898 ft 496 kts 133°
2026-05-05 17:10 44.83427 7.68567 37044 ft 497 kts 133°
2026-05-05 17:10 44.81337 7.72472 37293 ft 497 kts 133°
2026-05-05 17:11 44.79262 7.76351 37540 ft 496 kts 133°
2026-05-05 17:11 44.77191 7.80220 37770 ft 495 kts 133°
2026-05-05 17:11 44.75117 7.84088 37979 ft 495 kts 133°
2026-05-05 17:11 44.73043 7.87950 38167 ft 494 kts 133°
2026-05-05 17:12 44.70967 7.91808 38298 ft 495 kts 133°
2026-05-05 17:12 44.68910 7.95626 38387 ft 497 kts 133°
2026-05-05 17:12 44.64721 8.03385 38553 ft 500 kts 132°
2026-05-05 17:13 44.62617 8.07276 38717 ft 499 kts 132°
2026-05-05 17:13 44.60518 8.11153 38863 ft 498 kts 132°
2026-05-05 17:13 44.56303 8.18919 38943 ft 501 kts 132°
2026-05-05 17:14 44.52078 8.26685 38939 ft 500 kts 132°
2026-05-05 17:14 44.47852 8.34432 38930 ft 500 kts 132°
2026-05-05 17:15 44.43620 8.42167 38941 ft 501 kts 133°
2026-05-05 17:15 44.39457 8.49995 38955 ft 505 kts 127°
2026-05-05 17:16 44.35776 8.58365 38958 ft 506 kts 126°
2026-05-05 17:16 44.32191 8.66835 38961 ft 506 kts 125°
2026-05-05 17:17 44.28639 8.75247 38936 ft 507 kts 125°
2026-05-05 17:17 44.25041 8.83711 38950 ft 509 kts 126°
2026-05-05 17:18 44.21402 8.92225 38948 ft 510 kts 126°
2026-05-05 17:18 44.17762 9.00715 38950 ft 510 kts 126°
2026-05-05 17:19 44.14117 9.09190 38912 ft 510 kts 126°
2026-05-05 17:19 44.10484 9.17613 38946 ft 510 kts 126°
2026-05-05 17:20 44.06822 9.26079 38950 ft 510 kts 126°
2026-05-05 17:20 44.03148 9.34548 38940 ft 511 kts 126°
2026-05-05 17:21 43.99466 9.43009 38952 ft 512 kts 126°
2026-05-05 17:22 43.93915 9.55717 38954 ft 513 kts 126°
2026-05-05 17:22 43.90204 9.64184 38957 ft 513 kts 126°
2026-05-05 17:23 43.86489 9.72637 38961 ft 513 kts 126°
2026-05-05 17:23 43.82794 9.81017 38962 ft 513 kts 126°
2026-05-05 17:24 43.79067 9.89448 38953 ft 513 kts 126°
2026-05-05 17:24 43.75329 9.97877 38961 ft 514 kts 127°
2026-05-05 17:25 43.71581 10.06303 38970 ft 514 kts 127°
2026-05-05 17:25 43.67832 10.14708 38981 ft 514 kts 127°
2026-05-05 17:26 43.64075 10.23107 38970 ft 514 kts 127°
2026-05-05 17:26 43.60303 10.31513 38993 ft 515 kts 127°
2026-05-05 17:27 43.56546 10.39864 38983 ft 516 kts 127°
2026-05-05 17:27 43.52756 10.48265 38986 ft 516 kts 127°
2026-05-05 17:28 43.48952 10.56670 38992 ft 517 kts 127°
2026-05-05 17:28 43.45134 10.65079 38990 ft 519 kts 127°
2026-05-05 17:29 43.41298 10.73508 38993 ft 520 kts 127°
2026-05-05 17:29 43.37455 10.81931 38995 ft 520 kts 127°
2026-05-05 17:30 43.33607 10.90338 38998 ft 520 kts 127°
2026-05-05 17:30 43.29748 10.98742 38987 ft 520 kts 127°
2026-05-05 17:31 43.25886 11.07132 39007 ft 521 kts 128°
2026-05-05 17:31 43.22031 11.15480 39004 ft 521 kts 128°
2026-05-05 17:32 43.18146 11.23871 39005 ft 520 kts 128°
2026-05-05 17:32 43.14263 11.32232 38999 ft 520 kts 127°
2026-05-05 17:33 43.10366 11.40599 39005 ft 521 kts 127°
2026-05-05 17:33 43.06458 11.48969 39016 ft 522 kts 127°
2026-05-05 17:34 43.02545 11.57325 39017 ft 522 kts 127°
2026-05-05 17:34 42.98628 11.65668 39025 ft 521 kts 127°
2026-05-05 17:35 42.94707 11.73993 39019 ft 521 kts 127°
2026-05-05 17:35 42.90783 11.82300 39026 ft 521 kts 127°
2026-05-05 17:36 42.86852 11.90602 39032 ft 521 kts 127°
2026-05-05 17:36 42.82917 11.98886 39031 ft 521 kts 127°
2026-05-05 17:37 42.78975 12.07162 39017 ft 521 kts 127°
2026-05-05 17:37 42.75048 12.15383 39029 ft 522 kts 127°
2026-05-05 17:38 42.71085 12.23658 39036 ft 522 kts 127°
2026-05-05 17:38 42.67116 12.31923 39030 ft 521 kts 127°
2026-05-05 17:39 42.63145 12.40170 39043 ft 522 kts 127°
2026-05-05 17:39 42.59162 12.48414 39039 ft 521 kts 127°
2026-05-05 17:40 42.55202 12.56595 39053 ft 522 kts 127°
2026-05-05 17:40 42.51212 12.64811 39063 ft 522 kts 127°
2026-05-05 17:41 42.47194 12.73064 39074 ft 521 kts 127°
2026-05-05 17:41 42.43864 12.79883 39072 ft 522 kts 127°
2026-05-05 17:42 42.39192 12.89427 39074 ft 524 kts 127°
2026-05-05 17:42 42.35161 12.97637 39073 ft 524 kts 127°
2026-05-05 17:43 42.31808 13.04452 39067 ft 524 kts 127°
2026-05-05 17:43 42.27768 13.12641 39046 ft 523 kts 127°
2026-05-05 17:44 42.23725 13.20815 39048 ft 523 kts 127°
2026-05-05 17:44 42.19680 13.28967 39049 ft 523 kts 127°
2026-05-05 17:45 42.15383 13.36831 39044 ft 520 kts 134°
2026-05-05 17:45 42.10684 13.44220 39042 ft 519 kts 135°
2026-05-05 17:46 42.05919 13.51517 39040 ft 519 kts 135°
2026-05-05 17:46 42.01154 13.58798 39042 ft 519 kts 135°
2026-05-05 17:47 41.96389 13.66085 39040 ft 519 kts 135°
2026-05-05 17:47 41.91624 13.73363 39049 ft 518 kts 135°
2026-05-05 17:48 41.86857 13.80627 39042 ft 518 kts 135°
2026-05-05 17:48 41.82117 13.87831 39049 ft 518 kts 135°
2026-05-05 17:49 41.77334 13.95080 39046 ft 519 kts 135°
2026-05-05 17:49 41.72539 14.02332 39056 ft 520 kts 135°
2026-05-05 17:50 41.67738 14.09576 39054 ft 520 kts 135°
2026-05-05 17:50 41.62935 14.16804 39061 ft 519 kts 135°
2026-05-05 17:51 41.58130 14.24016 39050 ft 520 kts 135°
2026-05-05 17:51 41.53318 14.31223 39061 ft 520 kts 135°
2026-05-05 17:52 41.48502 14.38419 39063 ft 520 kts 135°
2026-05-05 17:52 41.43678 14.45606 39067 ft 519 kts 135°
2026-05-05 17:53 41.38860 14.52766 39064 ft 519 kts 135°
2026-05-05 17:53 41.34056 14.59895 39063 ft 519 kts 135°
2026-05-05 17:54 41.29215 14.67059 39063 ft 519 kts 135°
2026-05-05 17:54 41.24373 14.74204 39055 ft 519 kts 135°
2026-05-05 17:55 41.19534 14.81332 39072 ft 519 kts 135°
2026-05-05 17:55 41.14735 14.88397 39070 ft 519 kts 134°
2026-05-05 17:56 41.10176 14.95832 39071 ft 521 kts 130°
2026-05-05 17:56 41.05752 15.03437 39072 ft 522 kts 130°
2026-05-05 17:57 41.01281 15.11012 39070 ft 521 kts 131°
2026-05-05 17:57 40.96769 15.18528 39061 ft 521 kts 131°
2026-05-05 17:58 40.92239 15.26019 39078 ft 521 kts 131°
2026-05-05 17:58 40.87704 15.33500 39074 ft 521 kts 130°
2026-05-05 17:59 40.83163 15.40977 39076 ft 522 kts 131°
2026-05-05 17:59 40.78612 15.48455 39076 ft 522 kts 131°
2026-05-05 18:00 40.74065 15.55911 39077 ft 522 kts 131°
2026-05-05 18:00 40.69537 15.63316 39079 ft 522 kts 131°
2026-05-05 18:01 40.64966 15.70770 39079 ft 523 kts 130°
2026-05-05 18:01 40.60385 15.78226 39079 ft 524 kts 130°
2026-05-05 18:02 40.55800 15.85670 39084 ft 524 kts 131°
2026-05-05 18:02 40.51210 15.93103 39080 ft 524 kts 131°
2026-05-05 18:03 40.46615 16.00528 39082 ft 524 kts 131°
2026-05-05 18:03 40.42008 16.07953 39075 ft 525 kts 131°
2026-05-05 18:04 40.37387 16.15384 39083 ft 525 kts 131°
2026-05-05 18:04 40.32760 16.22807 39094 ft 525 kts 131°
2026-05-05 18:05 40.28161 16.30167 39108 ft 525 kts 131°
2026-05-05 18:05 40.23525 16.37567 39117 ft 526 kts 131°
2026-05-05 18:06 40.18866 16.44987 39115 ft 528 kts 131°
2026-05-05 18:06 40.14195 16.52409 39095 ft 528 kts 130°
2026-05-05 18:07 40.09518 16.59822 39089 ft 528 kts 130°
2026-05-05 18:07 40.04839 16.67222 39059 ft 528 kts 131°
2026-05-05 18:08 40.00161 16.74602 39058 ft 527 kts 131°
2026-05-05 18:08 39.95492 16.81951 39059 ft 525 kts 131°
2026-05-05 18:09 39.90855 16.89231 39058 ft 525 kts 131°
2026-05-05 18:09 39.86185 16.96546 39052 ft 525 kts 131°
2026-05-05 18:10 39.81517 17.03841 39054 ft 523 kts 131°
2026-05-05 18:10 39.76870 17.11087 39053 ft 519 kts 131°
2026-05-05 18:11 39.72254 17.18268 39055 ft 517 kts 131°
2026-05-05 18:11 39.67642 17.25425 39055 ft 517 kts 131°
2026-05-05 18:12 39.63051 17.32533 39058 ft 517 kts 131°
2026-05-05 18:12 39.58432 17.39670 39056 ft 517 kts 131°
2026-05-05 18:13 39.53812 17.46793 39064 ft 514 kts 132°
2026-05-05 18:13 39.49207 17.53874 39065 ft 514 kts 132°
2026-05-05 18:14 39.44599 17.60944 39069 ft 514 kts 132°
2026-05-05 18:14 39.39987 17.68005 39070 ft 514 kts 132°
2026-05-05 18:15 39.35368 17.75061 39082 ft 514 kts 132°
2026-05-05 18:15 39.30767 17.82073 39074 ft 517 kts 132°
2026-05-05 18:16 39.26108 17.89158 39080 ft 517 kts 132°
2026-05-05 18:16 39.21444 17.96235 39086 ft 517 kts 132°
2026-05-05 18:17 39.16776 18.03303 39082 ft 517 kts 133°
2026-05-05 18:17 39.12107 18.10356 39091 ft 517 kts 133°
2026-05-05 18:18 39.07429 18.17404 39087 ft 517 kts 133°
2026-05-05 18:18 39.02759 18.24426 39090 ft 517 kts 133°
2026-05-05 18:19 38.98097 18.31419 39096 ft 518 kts 133°
2026-05-05 18:19 38.93401 18.38449 39095 ft 518 kts 133°
2026-05-05 18:20 38.88702 18.45471 39098 ft 519 kts 133°
2026-05-05 18:20 38.83984 18.52504 39097 ft 521 kts 133°
2026-05-05 18:21 38.79251 18.59542 39103 ft 521 kts 133°
2026-05-05 18:21 38.74518 18.66566 39100 ft 521 kts 133°
2026-05-05 18:22 38.69783 18.73576 39104 ft 521 kts 133°
2026-05-05 18:22 38.65034 18.80594 39109 ft 521 kts 133°
2026-05-05 18:23 38.60306 18.87563 39107 ft 523 kts 133°
2026-05-05 18:23 38.55537 18.94579 39108 ft 523 kts 133°
2026-05-05 18:24 38.50753 19.01591 39110 ft 523 kts 134°
2026-05-05 18:24 38.45738 19.08308 39111 ft 522 kts 137°
2026-05-05 18:25 38.40616 19.14857 39115 ft 522 kts 137°
2026-05-05 18:25 38.35513 19.21435 39116 ft 521 kts 136°
2026-05-05 18:26 38.30434 19.28048 39116 ft 521 kts 136°
2026-05-05 18:26 38.25364 19.34661 39116 ft 522 kts 136°
2026-05-05 18:27 38.20291 19.41263 39123 ft 522 kts 136°